Wetbulb
55.05 55.21 55.01 54.47 52.54 51.67 51.01 51.29 51.07 51.05 49.90 49.44 49.29 49.58 50.41 50.89 51.00 51.28 51.75 52.14 51.71 50.36 49.12 49.69 49.47 48.73 48.43 47.23 46.70 46.47 45.59 46.41 45.69 46.35 46.82 46.32 46.32 46.15 46.36 47.40 48.76 49.49 47.91
52.60 53.51 53.94 53.07 52.32 51.53 51.36 50.74 51.09 50.32 49.96 50.06 49.84 50.25 50.43 50.04 50.57 50.98 51.08 51.39 51.43 51.19 50.36 49.75 49.20 48.73 48.80 48.02 46.94 46.07 46.27 45.88 44.84 43.60 42.92 42.42 45.34 46.06 45.17 46.85 46.07 46.01 47.14
50.78 51.89 51.95 51.85 52.02 51.27 50.83 50.89 50.94 50.24 49.79 50.11 49.45 49.54 50.12 50.18 50.30 50.06 50.57 50.55 50.60 51.01 50.50 49.27 49.06 48.87 48.75 48.12 47.15 46.27 44.82 45.03 45.72 43.49 42.88 41.84 40.56 41.59 45.39 44.76 44.94 44.88 45.88
49.95 50.60 50.71 49.99 50.04 51.61 51.24 50.88 50.47 49.81 49.57 49.88 49.77 50.03 49.92 49.22 48.92 50.04 50.29 50.23 49.93 50.08 50.25 49.42 48.89 48.76 48.52 48.00 47.63 46.80 45.75 45.18 44.76 45.41 44.22 43.71 42.69 40.98 39.47 44.64 44.63 44.79 44.62
48.83 49.26 50.20 51.35 48.56 49.23 49.84 50.13 49.71 49.44 49.49 49.34 49.94 49.63 48.43 48.61 48.91 49.26 48.62 48.54 49.26 49.28 49.43 49.27 48.65 48.39 48.49 47.53 46.93 46.55 46.08 45.63 44.95 44.42 44.29 43.49 42.89 41.54 40.24 37.90 40.66 42.93 43.61
46.94 48.09 47.80 47.35 46.76 47.55 48.05 48.55 48.74 48.61 49.01 49.02 48.99 48.88 48.86 48.25 48.25 47.89 47.92 47.89 48.13 48.07 48.26 48.13 47.96 46.87 45.59 44.88 44.87 44.80 44.20 44.46 44.10 44.01 43.38 42.94 41.98 41.67 41.00 38.91 38.36 37.75 40.16
44.61 45.38 44.12 44.87 45.66 46.53 47.03 47.51 48.08 47.56 48.02 48.24 48.35 48.47 48.46 48.14 47.77 47.10 46.78 46.56 46.87 45.85 45.41 44.51 43.57 41.39 40.60 40.55 41.09 40.66 40.91 41.01 40.99 40.69 40.96 42.06 41.75 42.03 40.86 38.97 37.03 35.95 38.06
41.17 43.10 42.90 44.23 45.34 46.01 46.56 47.25 47.28 46.15 46.31 46.75 46.56 46.35 46.57 46.83 46.68 46.54 46.54 46.70 47.02 45.88 42.12 40.07 39.50 39.23 39.23 39.09 39.20 39.18 39.58 38.70 38.93 38.33 38.29 39.04 39.40 39.65 39.82 38.23 36.23 33.44 35.00
40.53 41.61 42.81 44.34 45.04 45.28 45.40 46.10 45.86 45.17 44.90 45.08 45.33 45.60 46.10 46.09 46.30 46.18 46.23 45.93 44.23 40.52 38.97 38.84 38.56 38.44 38.34 38.15 37.99 38.15 37.72 37.55 37.57 37.57 37.48 37.23 37.98 37.99 38.19 37.65 37.55 35.04 30.84
41.28 42.47 43.56 44.40 44.92 45.20 44.83 44.30 44.56 44.33 43.69 44.41 45.14 45.40 45.41 45.68 45.49 43.89 42.70 41.04 39.46 38.68 38.06 37.75 37.84 37.57 37.39 37.22 37.02 36.91 36.85 36.70 37.27 37.19 36.77 36.76 37.09 37.17 37.64 37.30 36.88 36.35 34.52
41.62 42.52 43.34 44.07 44.26 43.72 43.07 42.48 41.51 41.53 41.69 42.64 43.58 44.00 43.64 43.16 41.69 40.79 39.35 38.12 37.66 37.49 37.31 37.25 37.05 36.81 36.56 36.34 36.20 36.03 35.97 35.59 36.21 36.41 36.16 36.08 36.66 36.87 37.39 37.40 36.69 35.78 35.26
41.53 42.18 42.56 42.41 42.31 41.97 41.43 41.26 40.69 40.61 40.88 41.12 41.79 42.20 41.26 40.37 38.99 37.94 36.99 36.65 36.91 36.47 36.72 36.42 36.08 35.91 35.80 35.85 35.52 35.42 35.64 35.13 34.90 35.42 35.37 35.48 36.22 36.51 36.95 36.52 35.64 35.41 35.85
39.61 40.17 40.59 40.46 40.71 40.81 40.74 40.53 40.27 40.11 40.02 40.29 40.57 40.01 38.80 37.26 37.21 36.37 35.81 35.62 35.57 35.57 35.37 35.11 35.13 35.14 35.34 35.44 35.65 35.16 34.98 34.91 34.93 34.98 34.71 35.10 35.66 35.29 35.96 35.56 34.88 35.01 34.82
36.80 36.07 35.81 36.05 36.98 38.13 39.13 39.49 39.64 39.93 39.81 39.33 39.16 38.72 37.37 36.44 35.91 35.41 34.98 34.99 34.83 34.70 34.51 34.48 34.55 34.87 35.26 35.47 35.33 35.05 34.80 34.56 34.56 34.81 35.00 35.43 35.52 35.30 35.42 34.85 34.59 34.57 34.60
35.02 35.62 35.63 35.82 35.96 36.47 36.90 37.48 38.48 39.15 39.21 38.40 37.32 37.28 36.51 35.24 34.56 34.32 34.26 34.27 34.15 34.23 33.97 34.00 34.57 34.88 34.80 35.48 36.23 36.29 36.16 35.30 35.16 35.61 35.47 35.88 36.13 36.63 36.98 34.90 34.72 35.05 34.63
35.10 35.60 35.75 35.92 35.61 35.42 35.78 35.98 36.78 37.37 38.18 37.36 36.45 35.56 34.71 33.99 33.76 33.55 33.61 33.56 33.51 33.57 33.64 34.01 33.93 34.31 34.56 36.84 38.65 38.87 37.24 36.40 35.53 35.15 35.82 35.62 35.91 36.67 38.37 38.89 39.05 38.36 34.86
35.28 35.56 35.24 35.14 34.77 34.05 33.73 34.70 35.37 36.53 36.38 35.61 34.53 34.07 33.72 33.51 33.35 33.11 32.96 33.00 32.93 33.06 33.86 34.03 33.84 33.65 33.54 36.07 38.09 38.76 37.36 35.93 35.70 35.32 35.19 34.69 34.56 35.87 35.25 35.80 37.01 37.59 38.30
35.29 35.25 34.94 34.31 32.63 32.17 32.82 33.70 34.45 34.34 33.86 33.29 33.19 33.26 33.16 32.74 32.62 32.74 32.51 32.54 33.22 33.67 33.26 33.07 32.64 31.67 31.73 35.53 36.83 37.53 36.28 34.93 34.44 34.06 33.82 33.51 33.52 34.37 33.81 32.57 32.52 33.00 33.60
35.30 34.98 34.26 32.15 30.81 31.01 31.82 32.40 32.29 32.51 32.44 31.89 32.09 32.33 32.69 32.14 32.22 32.36 32.84 33.14 32.84 32.22 31.48 30.94 30.43 30.06 30.64 33.82 35.62 35.55 33.93 32.99 32.71 32.94 33.07 32.62 32.28 34.14 35.74 34.31 33.40 33.47 34.24
35.02 33.36 31.71 30.70 30.81 30.18 31.30 31.40 30.84 31.21 30.86 31.25 31.31 31.80 32.16 31.98 32.66 32.39 32.03 31.83 30.32 29.56 29.79 29.41 29.71 30.29 30.05 31.85 34.27 35.18 33.98 32.04 32.10 32.98 32.90 34.02 34.48 36.37 36.79 35.14 34.47 33.12 33.77
33.05 30.92 30.44 29.88 29.62 30.29 31.16 29.90 29.68 29.43 30.69 31.21 31.26 31.93 32.15 32.01 31.41 30.47 29.77 28.77 28.30 28.06 27.85 28.21 28.77 28.25 29.10 30.40 34.10 35.40 33.87 32.91 32.33 32.47 32.83 33.55 35.03 35.91 36.51 36.67 35.44 34.08 35.50
31.36 30.00 29.48 28.81 28.89 29.67 29.55 28.36 28.19 29.03 29.89 30.88 31.20 31.17 30.89 30.31 29.60 28.43 27.95 27.81 27.26 26.66 26.80 26.69 27.72 29.74 29.29 31.24 33.42 35.11 35.47 35.64 33.18 32.56 33.35 33.74 35.00 35.94 36.51 36.47 36.64 36.81 36.88
30.83 29.58 28.74 27.77 27.32 28.03 28.58 27.85 27.64 29.44 30.53 30.70 29.72 28.78 28.41 29.01 27.97 27.58 27.33 27.54 27.01 26.61 26.69 27.32 27.87 29.12 30.95 31.42 33.43 34.64 35.22 35.46 33.90 34.29 34.94 36.03 36.14 36.11 35.65 35.91 35.97 35.72 34.35
29.21 28.36 27.91 27.00 26.37 26.67 27.25 27.71 29.21 30.44 29.01 27.81 27.24 27.42 27.37 29.32 27.39 28.19 28.40 27.24 27.25 26.73 27.61 27.83 28.57 29.43 30.17 30.56 31.80 32.31 33.28 34.14 33.71 33.92 33.85 34.38 35.69 35.70 35.18 33.97 33.29 32.63 32.24
28.87 28.31 27.44 26.49 26.01 27.04 28.91 29.34 28.83 28.31 27.69 27.04 27.18 26.83 27.76 26.39 26.77 27.54 27.19 28.56 29.03 28.41 29.26 30.09 29.78 29.09 28.19 30.13 33.31 33.12 32.20 32.56 33.30 34.24 32.41 30.53 30.79 30.69 30.26 29.66 29.91 30.31 29.48
27.28 27.02 26.58 26.19 26.48 28.65 27.70 27.65 27.86 27.52 26.84 27.24 27.34 27.21 28.08 26.75 27.03 27.01 27.38 30.57 31.86 32.63 32.65 32.59 31.58 30.67 32.31 33.33 33.41 33.30 33.69 34.50 34.82 30.20 28.04 27.36 27.71 27.45 27.55 27.05 27.10 27.48 27.70
MSLP
1014.89 1015.28 1015.63 1016.09 1016.64 1017.39 1017.97 1018.40 1018.99 1019.51 1019.99 1020.61 1021.08 1021.37 1021.24 1021.31 1021.45 1021.60 1021.58 1021.73 1022.01 1022.27 1022.43 1022.50 1022.64 1022.83 1022.81 1022.86 1022.76 1022.63 1022.50 1022.16 1022.04 1021.38 1020.87 1020.80 1020.79 1020.75 1020.79 1020.72 1020.54 1020.50 1020.53
1014.69 1015.10 1015.50 1016.03 1016.54 1017.00 1017.62 1018.23 1018.73 1019.35 1019.86 1020.20 1020.59 1020.85 1021.11 1021.34 1021.36 1021.50 1021.66 1021.78 1021.92 1022.14 1022.28 1022.48 1022.63 1022.74 1022.77 1022.88 1022.84 1022.79 1022.63 1022.64 1022.70 1022.35 1022.11 1021.35 1020.97 1020.88 1021.00 1021.04 1021.03 1021.11 1021.06
1014.31 1014.86 1015.36 1015.75 1016.32 1016.83 1017.31 1017.80 1018.44 1019.13 1019.68 1020.01 1020.47 1021.01 1021.20 1021.34 1021.42 1021.58 1021.73 1021.78 1021.77 1021.95 1022.22 1022.44 1022.56 1022.70 1022.77 1022.82 1022.89 1022.93 1022.92 1022.80 1022.86 1022.91 1022.78 1022.32 1022.00 1021.79 1021.19 1021.25 1021.36 1021.34 1021.20
1014.08 1014.49 1015.10 1015.63 1016.05 1016.54 1017.21 1017.72 1018.33 1018.98 1019.49 1019.89 1020.33 1020.57 1020.88 1021.24 1021.57 1021.66 1021.74 1021.67 1021.75 1021.92 1022.15 1022.34 1022.47 1022.60 1022.75 1022.81 1022.90 1022.98 1023.05 1022.99 1022.89 1022.89 1023.00 1023.10 1023.13 1022.72 1021.79 1021.28 1021.09 1021.17 1020.74
1013.87 1014.19 1014.70 1015.17 1015.90 1016.51 1017.10 1017.70 1018.29 1018.88 1019.33 1019.78 1020.16 1020.53 1020.92 1021.35 1021.65 1021.68 1021.68 1021.75 1021.83 1021.99 1022.08 1022.20 1022.34 1022.47 1022.65 1022.82 1022.90 1023.03 1023.14 1023.29 1023.26 1023.28 1023.26 1023.26 1023.16 1023.19 1022.98 1021.80 1021.41 1020.92 1020.82
1013.90 1014.25 1014.78 1015.46 1016.13 1016.77 1017.29 1017.89 1018.32 1018.86 1019.29 1019.72 1020.15 1020.49 1020.79 1021.16 1021.44 1021.54 1021.55 1021.73 1021.94 1022.05 1022.11 1022.24 1022.36 1022.58 1022.75 1022.93 1023.06 1023.14 1023.20 1023.26 1023.37 1023.40 1023.47 1023.38 1023.19 1023.10 1023.00 1022.56 1021.71 1021.44 1020.68
1013.94 1014.38 1015.06 1015.78 1016.46 1017.04 1017.57 1017.99 1018.37 1018.86 1019.31 1019.70 1020.10 1020.40 1020.66 1020.94 1021.09 1021.25 1021.47 1021.69 1021.86 1022.03 1022.18 1022.31 1022.53 1022.80 1023.02 1023.11 1023.17 1023.25 1023.28 1023.26 1023.26 1023.27 1023.17 1023.23 1023.08 1023.02 1022.97 1022.86 1022.16 1021.72 1020.58
1014.24 1014.85 1015.51 1016.15 1016.75 1017.29 1017.71 1018.05 1018.43 1018.92 1019.39 1019.68 1019.94 1020.24 1020.57 1020.84 1021.06 1021.20 1021.38 1021.50 1021.65 1021.89 1022.22 1022.57 1022.76 1022.88 1022.99 1023.12 1023.21 1023.26 1023.29 1023.31 1023.27 1023.22 1023.12 1022.99 1023.10 1022.98 1022.82 1022.72 1022.76 1021.85 1021.35
1014.87 1015.33 1015.95 1016.45 1017.00 1017.52 1017.92 1018.26 1018.60 1018.94 1019.24 1019.60 1019.99 1020.32 1020.65 1020.85 1020.96 1021.16 1021.41 1021.59 1021.80 1022.06 1022.42 1022.60 1022.73 1022.90 1022.99 1023.03 1023.17 1023.22 1023.19 1023.23 1023.24 1023.21 1023.10 1023.02 1022.91 1022.84 1022.85 1022.81 1022.84 1022.74 1021.66
1015.54 1015.90 1016.38 1016.88 1017.38 1017.80 1018.16 1018.43 1018.66 1018.86 1019.29 1019.72 1020.05 1020.29 1020.53 1020.80 1021.08 1021.36 1021.53 1021.69 1021.85 1022.10 1022.39 1022.58 1022.68 1022.81 1022.93 1023.00 1023.04 1023.08 1023.15 1023.16 1023.00 1023.05 1023.05 1022.78 1022.80 1022.60 1022.62 1022.44 1022.65 1022.62 1022.29
1016.04 1016.38 1016.87 1017.34 1017.65 1017.98 1018.28 1018.58 1018.82 1019.02 1019.41 1019.70 1020.05 1020.35 1020.67 1020.97 1021.18 1021.40 1021.58 1021.70 1021.97 1022.19 1022.34 1022.51 1022.65 1022.73 1022.85 1022.84 1022.93 1023.03 1022.99 1023.05 1022.92 1022.85 1022.87 1022.51 1022.47 1022.18 1022.05 1022.03 1022.02 1022.04 1021.85
1016.52 1016.84 1017.25 1017.65 1017.97 1018.24 1018.50 1018.63 1018.83 1019.13 1019.47 1019.75 1020.01 1020.36 1020.69 1020.95 1021.17 1021.36 1021.58 1021.82 1021.95 1022.19 1022.33 1022.51 1022.58 1022.71 1022.75 1022.88 1022.87 1022.82 1022.80 1022.85 1022.56 1022.33 1022.53 1022.18 1021.90 1021.65 1021.47 1021.56 1021.45 1021.18 1021.18
1017.01 1017.30 1017.64 1017.97 1018.20 1018.39 1018.57 1018.71 1018.93 1019.18 1019.43 1019.65 1019.93 1020.33 1020.64 1020.93 1021.16 1021.40 1021.65 1021.87 1022.11 1022.29 1022.47 1022.60 1022.67 1022.77 1022.74 1022.75 1022.74 1022.70 1022.53 1022.24 1022.04 1021.90 1021.80 1021.52 1021.39 1021.00 1020.83 1020.76 1020.63 1020.49 1020.41
1017.45 1017.73 1018.02 1018.30 1018.41 1018.55 1018.70 1018.80 1018.93 1019.06 1019.26 1019.61 1019.96 1020.27 1020.66 1020.91 1021.16 1021.42 1021.69 1021.93 1022.11 1022.28 1022.47 1022.57 1022.60 1022.59 1022.58 1022.47 1022.37 1022.26 1022.02 1021.73 1021.60 1021.47 1021.23 1020.89 1020.67 1020.39 1020.19 1020.06 1019.86 1019.78 1019.66
1017.79 1017.97 1018.26 1018.55 1018.70 1018.77 1018.85 1018.82 1018.84 1018.94 1019.27 1019.59 1020.05 1020.38 1020.70 1020.99 1021.23 1021.52 1021.78 1021.99 1022.18 1022.36 1022.45 1022.51 1022.49 1022.49 1022.39 1022.17 1021.88 1021.69 1021.29 1021.04 1020.86 1020.58 1020.38 1020.04 1019.81 1019.63 1019.40 1019.21 1018.90 1018.90 1018.74
1018.07 1018.29 1018.53 1018.73 1018.94 1019.02 1019.05 1019.08 1019.07 1019.13 1019.39 1019.79 1020.18 1020.54 1020.79 1021.15 1021.44 1021.69 1021.95 1022.11 1022.22 1022.31 1022.37 1022.38 1022.33 1022.22 1022.00 1021.57 1021.33 1021.00 1020.52 1020.18 1020.06 1019.71 1019.45 1019.21 1018.93 1018.58 1018.34 1018.07 1017.83 1017.80 1017.71
1018.17 1018.50 1018.82 1019.04 1019.24 1019.41 1019.45 1019.35 1019.20 1019.17 1019.45 1019.88 1020.26 1020.63 1021.03 1021.31 1021.58 1021.85 1021.97 1022.03 1022.15 1022.25 1022.28 1022.17 1022.06 1021.79 1021.48 1021.21 1020.90 1020.54 1020.07 1019.66 1019.35 1019.21 1018.82 1018.45 1018.19 1017.81 1017.46 1017.27 1017.08 1016.79 1016.60
1018.28 1018.70 1019.06 1019.36 1019.59 1019.69 1019.66 1019.62 1019.53 1019.52 1019.77 1020.24 1020.65 1021.01 1021.28 1021.60 1021.74 1021.76 1022.01 1022.13 1022.15 1022.18 1022.08 1021.90 1021.74 1021.63 1021.33 1021.01 1020.57 1019.97 1019.53 1019.10 1018.74 1018.59 1018.32 1017.84 1017.31 1016.99 1016.86 1016.65 1016.39 1016.17 1016.01
1018.43 1018.90 1019.21 1019.55 1019.92 1019.92 1019.89 1019.81 1019.94 1020.12 1020.39 1020.78 1021.08 1021.37 1021.46 1021.55 1021.81 1022.01 1022.12 1022.18 1022.14 1021.98 1021.90 1021.92 1021.64 1021.36 1020.87 1020.49 1019.97 1019.60 1019.18 1018.69 1018.19 1017.87 1017.54 1017.16 1016.71 1016.22 1016.05 1015.80 1015.47 1015.20 1014.88
1018.59 1019.02 1019.46 1019.83 1019.92 1020.15 1020.17 1020.23 1020.58 1020.77 1021.11 1021.29 1021.39 1021.48 1021.65 1021.90 1022.12 1022.30 1022.30 1022.29 1022.29 1022.18 1021.91 1021.57 1021.36 1021.00 1020.48 1020.15 1019.81 1019.40 1018.89 1018.25 1017.64 1017.20 1016.76 1016.37 1016.12 1015.55 1015.11 1014.83 1014.62 1014.38 1014.12
1018.84 1019.30 1019.63 1019.98 1020.34 1020.49 1020.37 1020.64 1021.02 1021.37 1021.51 1021.53 1021.65 1021.83 1022.07 1022.21 1022.31 1022.40 1022.49 1022.47 1022.22 1021.96 1021.69 1021.31 1021.01 1020.70 1020.33 1019.79 1019.46 1019.03 1018.55 1017.97 1017.22 1016.69 1016.07 1015.65 1015.33 1014.96 1014.48 1014.11 1013.73 1013.47 1013.27
1019.17 1019.65 1020.06 1020.47 1020.59 1020.56 1020.67 1021.28 1021.54 1021.73 1021.70 1021.79 1021.98 1022.20 1022.35 1022.48 1022.59 1022.60 1022.45 1022.25 1022.10 1021.77 1021.41 1020.97 1020.53 1020.27 1019.95 1019.57 1019.10 1018.55 1018.06 1017.53 1016.97 1016.28 1015.66 1015.05 1014.62 1014.22 1013.75 1013.34 1012.94 1012.63 1012.40
1019.39 1019.75 1020.09 1020.65 1020.91 1020.94 1021.05 1021.51 1021.83 1021.82 1021.90 1022.04 1022.27 1022.48 1022.58 1022.59 1022.54 1022.46 1022.38 1022.20 1021.95 1021.71 1021.27 1020.82 1020.24 1019.81 1019.49 1019.09 1018.64 1018.01 1017.45 1016.93 1016.38 1015.83 1015.16 1014.42 1013.86 1013.36 1012.97 1012.68 1012.23 1012.11 1012.17
1019.57 1019.95 1020.38 1020.78 1021.18 1021.33 1021.46 1021.61 1021.83 1021.97 1022.11 1022.29 1022.45 1022.53 1022.43 1022.38 1022.47 1022.40 1022.29 1022.14 1021.89 1021.68 1021.19 1020.71 1020.00 1019.49 1019.07 1018.48 1018.03 1017.35 1016.69 1016.18 1015.57 1015.04 1014.61 1014.12 1013.51 1012.93 1012.51 1012.50 1012.50 1012.30 1012.09
1019.52 1019.91 1020.34 1020.83 1021.30 1021.53 1021.79 1022.00 1022.09 1022.12 1022.22 1022.26 1022.27 1022.31 1022.39 1022.47 1022.53 1022.47 1022.36 1022.05 1021.75 1021.52 1020.78 1020.38 1019.97 1019.33 1018.80 1018.29 1017.58 1016.90 1016.24 1015.64 1014.99 1014.43 1014.16 1013.75 1013.28 1012.83 1012.61 1012.29 1012.13 1012.01 1011.87
1019.57 1020.05 1020.53 1021.00 1021.46 1021.78 1022.05 1022.19 1022.22 1022.20 1022.21 1022.29 1022.38 1022.41 1022.47 1022.52 1022.48 1022.31 1022.03 1021.72 1021.39 1020.99 1020.62 1020.18 1019.81 1019.08 1018.48 1017.74 1017.18 1016.60 1015.93 1015.27 1014.77 1014.47 1014.11 1013.65 1013.28 1012.87 1012.54 1012.24 1011.96 1011.82 1011.61
Wind_Speed
8 9 9 9 9 8 9 10 10 9 7 3 3 2 2 2 1 2 3 3 1 3 2 1 1 2 3 3 4 3 4 3 6 4 2 1 1 5 4 3 2 3 4
7 7 9 9 10 11 10 9 10 9 7 3 2 1 2 1 1 1 1 1 2 3 3 2 2 1 1 2 3 4 2 2 5 4 2 4 0 2 4 3 4 5 4
9 8 9 10 9 10 11 11 10 9 7 6 4 3 2 2 1 1 1 1 2 3 3 3 2 2 1 1 2 2 3 3 2 5 3 2 3 5 1 2 2 5 5
5 5 8 8 9 9 7 7 8 9 7 8 5 4 3 2 1 1 1 1 3 3 3 3 3 3 2 1 1 1 1 0 2 0 2 1 2 3 5 1 2 3 8
8 9 11 9 4 6 7 6 7 8 6 7 5 4 3 2 2 2 2 2 2 2 3 4 4 3 2 2 1 1 1 1 1 1 1 0 0 1 3 6 4 7 5
7 6 5 6 6 5 6 6 7 6 7 6 5 5 4 4 3 2 2 2 2 2 3 4 4 3 3 2 2 2 2 1 1 1 1 2 2 1 3 4 7 10 5
8 8 8 7 7 7 6 6 7 6 6 6 6 5 5 5 5 4 3 4 3 2 3 3 3 3 3 3 3 3 2 2 1 2 2 3 4 3 3 4 6 4 5
4 6 6 7 7 7 6 7 7 6 6 6 5 4 4 3 3 3 3 3 3 3 4 4 4 4 4 3 3 2 2 2 2 4 4 3 4 3 3 3 4 7 4
5 7 7 7 7 7 6 7 7 6 6 5 4 4 4 4 4 4 3 2 3 3 4 4 4 4 3 3 3 1 2 3 3 4 4 4 3 3 4 4 4 4 6
7 7 6 7 5 6 5 6 5 6 5 5 4 4 4 3 3 3 4 4 4 4 5 4 4 4 3 3 2 2 3 4 4 4 5 5 4 4 4 4 4 5 7
6 6 6 5 5 5 4 4 4 4 4 4 3 3 3 3 3 3 4 4 4 4 4 4 4 4 4 3 3 4 4 6 6 6 7 8 7 5 5 5 5 6 6
6 6 6 5 5 4 4 4 3 3 3 4 4 4 4 4 4 4 4 4 4 4 4 4 3 4 3 3 4 5 5 7 8 8 7 10 6 8 7 6 8 7 7
6 6 5 5 4 3 2 2 3 4 3 4 4 4 4 4 4 4 4 3 3 3 3 3 3 3 4 5 5 6 8 8 9 9 10 11 9 10 8 8 8 7 7
6 6 6 5 4 3 1 2 3 3 3 3 4 4 4 4 4 3 3 3 3 3 3 3 3 4 5 6 7 8 8 9 9 10 11 12 11 12 11 9 10 8 8
7 6 5 4 4 4 3 3 2 3 3 4 4 4 3 3 3 3 2 1 1 1 2 3 4 4 5 6 7 8 9 9 11 11 12 12 13 17 16 8 10 10 9
6 6 5 5 4 4 4 4 3 2 3 4 4 3 3 3 3 2 2 1 1 2 3 3 4 7 5 11 15 13 9 10 11 12 12 11 14 16 21 21 22 16 10
6 5 4 3 3 4 3 4 4 2 4 5 4 4 4 3 3 2 2 2 2 2 3 5 5 7 8 15 17 19 11 11 11 12 12 11 9 15 12 15 18 19 21
5 5 4 3 4 3 4 3 4 6 6 6 5 4 4 4 3 4 3 1 1 3 4 6 7 8 8 16 19 20 12 10 12 12 13 14 14 13 13 11 12 12 12
4 4 4 3 4 4 4 6 7 7 7 6 5 4 4 5 4 3 2 2 2 3 4 5 8 9 9 15 18 17 10 11 13 11 12 12 13 17 20 13 13 13 12
5 5 5 4 5 4 5 7 6 6 6 4 5 4 5 5 3 2 3 2 2 5 5 7 7 10 11 15 17 15 8 11 10 12 12 17 15 20 20 13 12 12 12
6 5 6 6 4 3 5 8 6 6 3 5 5 5 4 3 3 2 2 3 4 6 6 8 8 8 9 11 18 19 10 8 10 9 10 9 18 19 20 19 11 12 12
6 5 6 5 4 4 6 6 6 2 4 5 5 4 4 3 2 3 3 4 5 6 7 8 8 6 7 12 16 20 19 18 10 11 10 11 20 21 21 17 19 21 19
6 4 6 6 4 4 5 6 3 3 4 4 4 3 2 2 2 3 5 5 5 5 7 7 8 8 7 7 14 18 20 19 13 10 16 26 24 22 16 19 20 18 5
6 5 7 6 5 4 5 5 3 3 4 4 2 2 3 4 4 4 3 3 5 6 6 8 8 8 9 9 8 8 9 14 11 12 11 14 19 23 14 11 6 5 5
5 5 6 6 6 4 4 3 3 3 3 3 3 3 2 3 4 4 3 4 5 4 7 7 7 8 10 9 18 17 11 11 14 14 6 6 6 7 5 7 6 6 6
5 5 6 6 5 5 4 3 2 3 3 3 2 2 3 3 3 3 5 8 10 13 15 14 11 9 18 22 22 24 24 24 18 8 8 8 8 8 8 8 8 7 8
Wind_Direction
184 181 180 170 153 158 164 172 169 172 151 140 139 164 203 183 186 216 215 205 169 160 162 145 81 43 31 13 5 351 352 358 347 318 8 25 37 46 44 14 79 82 65
179 175 170 163 174 173 178 172 181 167 168 146 148 146 144 129 147 166 84 119 193 186 184 149 109 96 64 31 26 23 356 359 15 359 322 356 312 25 34 47 53 61 24
180 180 174 179 172 176 180 182 177 167 164 155 124 101 98 118 129 88 99 77 181 181 167 161 150 124 98 49 33 35 31 9 33 41 14 334 342 326 9 15 341 359 345
174 170 170 173 184 193 171 161 158 163 166 163 159 162 170 154 115 117 147 116 70 124 161 158 155 142 143 133 65 82 74 95 16 31 49 66 323 330 315 322 287 316 322
182 180 182 184 158 151 167 156 152 159 156 167 171 164 143 145 151 177 149 118 107 100 163 164 159 155 129 105 93 105 76 40 13 11 352 349 191 204 253 299 307 313 312
186 174 147 132 125 123 139 151 152 155 157 160 162 166 174 178 189 186 191 167 141 131 138 141 133 119 112 105 93 98 118 120 128 172 213 249 276 254 255 270 304 309 315
175 161 154 145 134 136 136 144 151 149 153 156 164 173 183 189 205 197 187 174 168 175 163 143 137 111 115 122 131 125 128 138 183 208 223 224 229 224 241 263 283 290 306
140 134 133 131 133 134 139 139 146 139 152 161 170 172 176 187 191 189 188 191 188 166 143 123 123 136 144 136 141 142 163 191 217 230 230 244 241 228 230 251 284 299 280
115 127 127 133 139 145 151 146 144 149 162 166 164 171 171 180 192 188 172 162 137 133 140 148 153 154 153 151 159 190 213 228 239 250 247 246 246 237 243 246 245 265 299
107 119 126 135 126 129 139 143 154 159 163 158 173 178 183 187 167 155 162 156 143 148 156 165 170 170 180 188 198 238 253 257 258 263 254 245 254 252 246 240 241 237 256
122 122 113 112 122 120 129 137 137 140 162 177 169 164 170 161 157 168 166 166 160 168 176 180 184 200 217 217 244 264 274 271 281 276 267 267 253 253 247 236 239 242 231
114 109 109 116 118 124 135 150 158 172 183 179 172 176 164 165 169 174 172 169 176 180 185 190 209 233 261 274 265 284 289 281 282 284 271 268 260 254 249 244 247 241 241
99 98 93 90 95 103 127 175 195 205 187 174 169 164 171 179 191 186 177 179 184 194 197 222 255 288 289 290 287 277 281 280 277 275 267 267 261 258 249 241 246 244 249
103 99 84 74 64 53 30 266 249 218 194 179 177 183 193 197 196 182 182 190 193 212 243 272 284 287 296 294 290 286 284 282 276 272 267 265 257 256 257 248 248 248 249
90 86 81 70 58 43 24 2 300 240 195 180 180 200 185 172 156 169 177 185 198 264 293 298 304 305 300 293 298 284 278 279 277 271 265 260 256 254 250 247 246 243 247
98 93 81 64 43 16 355 337 321 291 181 173 177 160 140 129 142 125 143 168 342 320 309 314 307 307 301 296 299 299 287 273 271 275 273 270 264 262 261 258 254 244 240
129 107 88 69 42 18 359 3 347 28 125 133 130 120 118 117 114 130 96 34 356 330 315 309 303 299 299 301 307 308 298 289 284 278 281 278 267 268 261 260 263 260 259
123 102 89 71 47 30 41 65 68 82 91 92 95 97 102 113 104 75 63 4 319 307 307 312 315 310 301 309 313 312 304 294 288 279 281 279 278 268 267 264 262 258 255
122 117 99 86 86 68 71 80 68 74 79 81 89 99 107 89 90 78 23 320 302 317 321 312 311 307 305 308 315 317 307 296 292 287 282 279 282 281 281 271 263 264 261
118 119 116 107 90 57 85 86 82 84 79 86 93 89 89 90 75 23 351 335 332 303 307 309 298 306 309 312 316 318 304 298 300 299 290 286 288 290 287 271 263 264 267
129 115 107 100 90 98 103 82 82 73 89 98 91 79 72 75 51 16 353 320 323 325 322 321 313 305 302 305 317 321 312 302 298 297 301 296 293 294 292 285 272 257 264
122 128 119 106 78 84 98 102 87 92 96 97 83 70 53 38 36 4 346 334 335 331 322 316 316 312 294 297 313 319 319 315 307 296 292 289 292 291 285 282 276 274 277
140 131 122 115 84 86 107 111 137 116 92 80 69 58 42 50 25 6 348 338 337 329 321 317 315 315 317 305 301 310 311 309 306 294 293 301 304 299 302 296 289 302 306
149 143 134 121 107 99 102 114 114 100 90 86 68 41 26 17 8 351 339 324 324 321 316 312 309 315 317 319 315 307 312 311 306 290 293 297 294 297 293 324 336 303 289
134 140 138 138 140 132 110 104 106 110 97 85 45 26 21 8 338 332 314 317 295 283 303 308 305 314 316 316 316 321 322 317 312 328 325 326 316 312 309 302 299 292 295
142 136 137 134 149 141 130 126 110 101 82 62 20 357 350 336 318 314 311 312 312 319 316 320 319 314 314 317 322 323 320 322 334 333 318 314 315 311 311 310 311 307 300